SCP
0 0 0 0 0 0 0 0 0 0 0 0 0 0 0 0 0 0 0 0 0 0 0 0 0 0 0 0 0 0 0 0 0 0 0 0 0 0
0 0 0 0 0 0 0 0 0 0 0 0 0 0 0 0 0 0 0 0 0 0 0 0 0 0 0 0 0 0 0 0 0 0 0 0 0 0
0 0 0 0 0 0 0 0 0 0 0 0 0 0 0 0 0 0 0 0 0 0 0 0 0 0 0 0 0 0 0 0 0 0 0 0 0 0
0 0 0 0 0 0 0 0 0 0 0 0 0 0 0 0 0 0 0 0 0 0 0 0 0 0 0 0 0 0 0 0 0 0 0 0 0 0
0 0 0 0 0 0 0 0 0 0 0 0 0 0 0 0 0 0 0 0 0 0 0 0 0 0 0 0 0 0 0 0 0 0 0 0 0 0
0 0 0 0 0 0 0 0 0 0 0 0 0 0 0 0 0 0 0 0 0 0 0 0 0 0 0 0 -0 -0 0 0 0 0 0 0 0 0
0 0 0 0 0 0 0 0 0 0 0 0 0 0 0 0 0 0 0 0 0 0 0 0 0 0 0 0 0 0 0 -0 0 0 0 0 0 0
0 0 0 0 0 0 0 0 0 0 0 0 0 0 0 0 0 0 0 0 0 0 0 0 0 0 0 0 0 0 0 0 0 0 0 0 0 0
1 0 0 0 0 0 0 0 0 0 0 0 0 0 0 0 0 0 0 0 0 0 0 0 0 0 0 0 0 0 0 0 0 0 0 0 0 0
0 0 0 0 0 0 0 0 0 0 0 0 0 0 0 0 0 0 0 0 0 0 0 0 0 0 0 0 0 0 0 0 0 0 0 0 0 0
1 0 0 0 0 0 0 0 0 0 0 0 0 0 0 0 0 0 0 0 0 0 0 0 0 0 0 0 0 0 0 0 0 0 0 0 0 0
1 0 0 0 0 0 0 0 1 0 0 0 0 0 0 0 0 0 0 0 0 0 0 0 0 0 0 0 0 0 0 0 0 0 0 0 0 0
1 1 0 0 0 0 0 0 0 0 0 0 0 0 0 0 0 0 0 0 0 0 0 0 0 0 0 0 0 0 0 0 0 0 0 0 0 0
1 1 0 0 0 0 0 0 0 0 0 1 0 0 0 0 0 0 0 0 0 0 0 0 0 0 0 0 0 0 0 0 0 0 0 0 0 0
0 0 0 0 0 0 0 0 0 0 1 1 1 0 0 0 0 0 0 0 0 0 0 0 0 0 0 0 0 0 0 0 0 0 0 0 0 0
0 0 0 0 0 0 0 0 0 0 1 1 1 1 0 0 0 0 0 0 0 0 0 0 0 0 0 0 0 0 0 0 0 0 0 0 0 0
0 0 0 0 0 0 0 0 1 1 1 1 1 1 0 0 0 0 0 0 0 0 0 0 0 0 0 0 0 0 0 0 0 0 0 0 0 0
0 0 0 1 1 1 1 1 1 1 1 1 1 1 0 0 0 0 0 0 0 0 0 0 0 0 0 0 0 0 0 0 0 0 0 0 0 0
0 0 1 1 1 1 1 1 1 1 1 1 1 1 1 0 0 0 0 0 0 0 0 0 0 0 0 0 0 0 0 0 0 0 0 0 0 0
0 0 1 1 1 1 1 1 1 0 0 0 1 1 1 0 0 0 0 0 0 0 0 0 0 0 0 0 0 0 0 0 0 0 0 0 0 0
1 1 1 1 1 1 1 1 0 0 0 0 0 0 0 0 0 0 0 0 0 0 0 0 0 0 0 0 0 0 0 0 0 0 0 0 0 0
1 1 1 1 1 1 0 0 0 0 0 0 0 0 0 0 0 0 0 0 0 0 0 0 0 0 0 0 0 0 0 0 0 0 0 0 0 0
1 1 1 1 0 0 0 0 0 0 0 0 0 0 0 0 0 0 0 0 0 0 0 0 0 0 0 0 0 0 0 0 0 0 0 0 0 0
Wind_Speed
2 2 1 1 1 0 1 2 2 1 1 1 1 2 3 3 6 4 5 8 8 7 7 7 7 7 6 6 6 6 7 7 7 7 7 6 6 6
1 2 2 2 2 1 1 0 1 2 1 1 1 2 3 4 5 4 5 9 8 7 6 6 6 6 6 5 5 6 6 6 6 6 6 6 6 6
1 2 2 2 2 2 1 1 1 2 2 1 1 2 2 2 3 3 4 4 4 7 6 6 6 5 5 5 5 5 5 5 5 5 6 6 5 5
2 2 2 2 2 2 1 1 1 1 3 3 2 2 2 2 3 3 4 3 4 7 8 7 6 5 5 4 5 5 4 4 4 4 4 5 5 5
2 2 2 2 2 1 2 2 2 1 2 3 3 2 1 1 2 2 2 2 3 5 8 7 6 6 5 5 5 4 4 3 3 3 3 4 4 4
2 3 3 2 2 1 1 1 1 1 2 2 2 2 1 1 2 1 1 1 1 3 4 6 6 6 6 5 5 5 4 3 2 2 2 2 3 4
2 3 3 4 5 4 2 2 2 2 1 1 2 2 1 1 1 1 1 1 0 1 2 3 3 3 3 4 5 5 4 4 3 2 2 2 3 3
1 2 2 3 5 6 6 5 4 2 1 1 1 1 1 1 0 1 1 1 1 0 1 2 3 3 3 3 6 6 6 5 4 3 3 3 3 3
2 2 1 3 3 3 4 4 4 4 3 2 1 1 1 0 1 1 0 1 1 1 1 2 2 2 2 4 8 8 7 6 6 5 4 3 3 2
2 2 2 3 4 3 2 3 3 3 1 1 1 1 0 0 0 1 2 1 1 1 1 1 1 1 2 3 7 8 7 6 6 5 5 4 3 3
2 3 2 2 4 3 2 2 2 2 3 4 3 2 2 2 1 0 1 1 1 1 0 1 1 1 1 2 4 9 8 8 7 5 4 3 3 2
2 2 3 3 3 3 1 1 1 1 1 2 1 1 2 2 2 1 1 1 0 0 0 0 1 0 0 1 2 4 4 6 7 7 6 4 3 2
2 1 2 3 2 2 1 0 1 1 1 2 2 2 2 1 1 1 0 1 1 1 1 1 1 1 1 1 1 2 3 3 4 5 6 6 5 4
0 2 2 3 1 1 1 1 2 1 1 1 1 1 1 1 1 1 1 1 1 1 0 1 1 1 1 1 0 1 2 2 2 3 4 5 6 6
1 2 2 3 1 1 3 3 2 1 1 1 1 1 1 1 1 1 1 1 1 1 1 1 0 1 1 1 0 1 1 1 2 2 2 3 4 3
2 2 2 3 2 2 1 1 1 1 0 0 1 1 1 1 1 1 1 1 1 1 1 1 1 1 1 1 1 1 1 1 2 2 2 2 2 3
1 1 2 2 2 2 2 1 1 0 0 0 0 0 0 1 1 0 0 0 0 0 0 0 1 1 2 1 1 1 1 1 1 1 1 2 3 3
2 2 2 2 2 2 2 2 1 1 0 0 0 0 0 0 0 0 0 1 0 0 0 0 0 1 1 1 2 2 1 1 1 1 1 2 3 2
2 2 2 2 1 1 1 1 1 1 0 0 0 1 1 1 1 1 1 1 1 1 1 1 0 1 2 2 2 2 2 1 1 2 2 2 3 2
4 3 2 1 1 1 1 1 1 1 1 1 1 1 1 1 1 1 1 0 1 1 1 0 0 1 2 2 2 2 4 3 2 2 2 2 2 1
3 2 1 1 1 1 1 1 1 1 1 1 1 1 1 1 1 1 1 1 1 1 1 1 1 2 2 1 2 2 2 4 3 3 2 2 2 2
3 2 2 1 1 1 1 1 1 1 1 1 1 1 1 1 1 2 2 1 1 1 1 1 2 2 2 2 3 2 2 2 3 5 5 5 3 3
3 3 2 2 2 2 1 2 2 2 1 1 1 1 1 1 2 2 2 2 2 1 1 1 1 1 2 2 3 3 3 2 2 1 2 5 7 7
Wind_Direction
7 12 357 332 345 1 129 147 150 162 184 156 117 112 105 99 118 120 115 118 120 115 109 105 102 95 90 87 82 76 70 64 58 57 57 54 53 48
23 18 14 8 8 12 58 111 136 145 152 97 100 132 120 119 127 127 120 127 130 129 124 117 110 103 97 91 84 77 72 67 62 57 57 54 48 49
32 53 45 30 17 14 24 41 79 112 130 112 103 112 113 121 131 139 132 135 138 141 140 133 124 117 110 101 93 86 79 72 66 58 54 53 48 52
50 51 39 34 39 30 21 19 56 116 141 143 139 136 137 150 149 158 151 154 140 146 153 146 137 130 122 114 107 103 93 82 72 61 57 53 48 52
59 58 47 41 30 35 50 37 46 79 122 133 139 127 134 161 142 144 148 153 157 150 158 158 152 141 134 130 126 122 116 102 85 69 59 55 53 53
57 57 50 51 34 23 58 54 71 81 106 120 130 140 144 162 139 154 151 161 181 157 155 157 160 159 152 147 143 142 144 139 123 104 80 62 56 58
90 89 78 74 66 58 49 49 63 81 106 115 132 123 118 134 168 184 147 137 165 163 153 154 160 166 169 169 168 165 163 160 153 138 117 96 79 75
82 99 114 98 94 88 77 67 66 84 80 88 94 119 122 135 116 139 140 153 194 248 173 184 170 178 180 176 180 180 181 176 169 161 146 130 109 97
46 37 55 70 84 99 105 92 68 59 78 92 84 81 83 100 162 204 164 157 210 212 202 217 189 190 177 165 173 182 186 186 186 183 174 167 160 154
55 49 60 49 37 31 79 84 73 51 68 111 103 116 94 99 185 207 202 183 196 214 201 247 228 203 154 149 174 178 182 188 191 190 190 192 193 192
77 58 59 64 28 36 88 99 93 90 80 90 102 135 137 123 105 45 247 194 213 208 190 245 248 236 162 166 179 183 186 188 188 189 194 202 216 230
119 99 71 55 35 30 91 111 100 71 96 96 104 157 168 155 145 107 349 319 237 201 194 251 243 235 247 181 169 180 194 197 197 202 207 214 210 207
157 133 98 83 58 5 351 90 231 264 223 183 160 155 150 134 139 125 42 6 1 352 16 339 295 292 241 203 195 184 185 189 193 205 211 213 204 193
129 119 125 125 102 324 296 282 287 272 235 181 138 133 124 109 119 142 162 134 130 164 21 16 318 297 287 282 259 192 195 194 190 196 195 196 207 212
82 99 155 173 180 229 217 238 257 226 209 151 137 135 136 157 156 172 163 158 188 207 162 168 315 320 294 259 222 218 234 216 193 198 199 192 197 198
167 169 184 208 241 263 240 228 211 207 222 173 156 151 166 159 155 173 179 182 194 216 187 175 213 235 280 288 225 231 236 218 205 207 219 220 208 203
155 198 190 182 195 196 173 165 169 182 238 196 155 131 225 168 162 192 130 298 149 151 197 267 260 220 197 223 250 253 245 239 212 204 224 237 229 212
173 209 198 195 195 186 172 167 160 161 264 276 11 338 290 258 190 170 215 231 222 195 207 230 248 270 285 277 254 255 257 262 253 223 258 254 248 223
214 225 201 205 206 194 176 162 153 155 222 247 252 268 275 270 266 249 248 248 229 229 223 195 201 258 284 285 283 253 251 253 253 256 251 255 257 233
222 220 198 186 180 172 138 123 136 165 197 233 243 274 274 264 268 259 244 291 298 284 268 246 192 251 263 276 281 266 230 238 239 252 266 269 270 251
206 205 198 177 169 157 147 154 172 182 199 250 250 281 295 288 282 300 305 275 267 277 280 260 237 233 245 270 281 281 248 220 225 231 245 264 275 263
197 196 186 180 174 170 173 193 210 190 200 225 236 250 252 265 268 266 273 270 259 259 273 267 245 245 252 264 273 272 272 248 225 233 239 232 232 248
197 190 185 194 184 187 198 212 225 217 213 212 214 245 261 262 265 268 276 282 292 284 267 264 264 263 267 264 271 272 275 270 256 245 261 247 231 239